User: anonymous   Login
Location: Ferchesar
(52.6477°N, 12.4298°E)
Time: 08:33:14
(UTC+01:00)
Language:

Explorer 11/Cluster Stage 4 - Orbit

View from above orbital plane
View from above orbital plane
View from above satellite
View from above satellite

Ground track
Ground track

The orbit data is extracted from the following two-line orbital elements,

1 00107U 61013A   21335.57707576  .00001325  00000-0  15678-3 0  9998
2 00107  28.7920  55.2880 0544760 287.8820  66.3089 14.09456040 41355
Epoch (UTC): 01 December 2021 13:50:59
Eccentricity: 0.0544760
inclination: 28.7920°
perigee height: 467 km
apogee height: 1255 km
right ascension of ascending node: 55.2880°
argument of perigee: 287.8820°
revolutions per day: 14.09456040
mean anomaly at epoch: 66.3089°
orbit number at epoch: 4135

The dashed part of the orbit path shows where the satellite is in the earth's shadow,  

DLR